TimeEDT,TemperatureF,Dew PointF,Humidity,Sea Level PressureIn,VisibilityMPH,Wind Direction,Wind SpeedMPH,Gust SpeedMPH,PrecipitationIn,Events,Conditions,WindDirDegrees,DateUTC
12:53 AM,66.9,62.1,84,30.03,10.0,West,5.8,-,N/A,,Clear,260,2013-07-04 04:53:00
1:53 AM,66.9,62.1,84,30.03,10.0,West,9.2,-,N/A,,Clear,280,2013-07-04 05:53:00
2:53 AM,66.0,62.1,87,30.03,10.0,West,9.2,-,N/A,,Clear,270,2013-07-04 06:53:00
3:53 AM,66.0,62.1,87,30.04,10.0,West,9.2,-,N/A,,Clear,280,2013-07-04 07:53:00
4:53 AM,64.0,62.1,93,30.04,7.0,West,6.9,-,N/A,,Clear,280,2013-07-04 08:53:00
5:53 AM,64.9,63.0,93,30.05,7.0,West,6.9,-,N/A,,Clear,270,2013-07-04 09:53:00
6:53 AM,68.0,64.0,87,30.07,8.0,West,10.4,-,N/A,,Clear,280,2013-07-04 10:53:00
7:53 AM,70.0,64.0,81,30.08,10.0,West,9.2,-,N/A,,Clear,280,2013-07-04 11:53:00
8:53 AM,73.0,64.9,76,30.08,10.0,West,4.6,-,N/A,,Clear,270,2013-07-04 12:53:00
9:53 AM,75.9,63.0,64,30.09,10.0,West,10.4,-,N/A,,Clear,270,2013-07-04 13:53:00
10:53 AM,78.1,63.0,60,30.07,10.0,Variable,6.9,-,N/A,,Clear,0,2013-07-04 14:53:00
11:53 AM,81.0,61.0,50,30.05,10.0,West,8.1,-,N/A,,Clear,260,2013-07-04 15:53:00
12:53 PM,82.9,57.9,42,30.04,10.0,West,13.8,-,N/A,,Clear,280,2013-07-04 16:53:00
1:53 PM,82.9,60.1,46,30.03,10.0,West,10.4,-,N/A,,Clear,260,2013-07-04 17:53:00
2:53 PM,84.9,60.1,43,30.01,10.0,WSW,12.7,-,N/A,,Clear,240,2013-07-04 18:53:00
3:53 PM,84.9,60.1,43,30.00,10.0,West,10.4,18.4,N/A,,Partly Cloudy,270,2013-07-04 19:53:00
4:53 PM,84.9,61.0,44,29.98,10.0,West,8.1,-,N/A,,Clear,270,2013-07-04 20:53:00
5:53 PM,84.0,61.0,46,29.97,10.0,WSW,9.2,-,N/A,,Clear,240,2013-07-04 21:53:00
6:53 PM,81.0,62.1,52,29.97,10.0,SW,6.9,-,N/A,,Partly Cloudy,230,2013-07-04 22:53:00
7:53 PM,79.0,60.1,52,29.97,10.0,West,13.8,-,N/A,,Clear,260,2013-07-04 23:53:00
8:53 PM,75.9,60.1,58,29.98,10.0,WNW,6.9,-,N/A,,Clear,290,2013-07-05 00:53:00
9:53 PM,73.9,62.1,66,29.96,10.0,WSW,5.8,-,N/A,,Clear,250,2013-07-05 01:53:00
10:53 PM,75.0,64.0,69,29.95,10.0,West,13.8,-,N/A,,Clear,260,2013-07-05 02:53:00
11:53 PM,75.0,66.0,73,29.95,10.0,West,10.4,19.6,N/A,,Clear,270,2013-07-05 03:53:00